Última Atualização: 01:20 - 16/05/2022

Relatório Meteorológico da Estação Guaratiba
Dia Hora Direção Vento (graus) Velocidade Vento (Km/h) Temperatura (celsius) Pressão (hPa) Umidade (%)
16/05/2022 01:15:00 065 7,1 - 1006,5 -
16/05/2022 01:00:00 066 4,9 - 1006,6 -
16/05/2022 00:45:00 068 8,8 - 1006,5 -
16/05/2022 00:30:00 075 4,9 - 1006,5 -
16/05/2022 00:15:00 065 5,3 - 1006,7 -
16/05/2022 00:00:00 145 3,2 - 1006,6 -
15/05/2022 23:45:00 077 3,9 - 1006,7 -
15/05/2022 23:30:00 081 1,1 - 1007,0 -
15/05/2022 23:15:00 078 3,2 - 1007,0 -
15/05/2022 23:00:00 087 1,8 - 1006,9 -
15/05/2022 22:45:00 083 2,5 - 1006,7 -
15/05/2022 22:30:00 087 6,4 - 1006,7 -
15/05/2022 22:15:00 084 7,4 - 1006,7 -
15/05/2022 22:00:00 083 6,7 - 1007,0 -
15/05/2022 21:45:00 081 5,6 - 1006,7 -
15/05/2022 21:30:00 085 2,1 - 1006,7 -
15/05/2022 21:15:00 084 4,9 - 1006,5 -
15/05/2022 21:00:00 085 2,8 - 1006,5 -
15/05/2022 20:45:00 089 5,3 - 1006,6 -
15/05/2022 20:30:00 091 4,6 - 1006,2 -
15/05/2022 20:15:00 096 4,6 - 1006,2 -
15/05/2022 20:00:00 122 14,8 - 1006,1 -
15/05/2022 19:45:00 121 3,2 - 1005,9 -
15/05/2022 19:30:00 127 6,0 - 1005,9 -
15/05/2022 19:15:00 132 6,7 - 1005,6 -
15/05/2022 19:00:00 148 8,1 - 1005,8 -
15/05/2022 18:45:00 285 5,6 - 1005,5 -
15/05/2022 18:30:00 139 13,8 - 1005,3 -
15/05/2022 18:15:00 123 9,9 - 1005,4 -
15/05/2022 18:00:00 138 7,4 - 1005,3 -
15/05/2022 17:45:00 126 13,1 - 1005,5 -
15/05/2022 17:30:00 148 9,5 - 1005,3 -
15/05/2022 17:15:00 143 4,6 - 1005,3 -
15/05/2022 17:00:00 145 9,9 - 1005,0 -
15/05/2022 16:45:00 143 7,8 - 1004,8 -
15/05/2022 16:30:00 148 5,3 - 1004,9 -
15/05/2022 16:15:00 140 8,8 - 1004,5 -
15/05/2022 16:00:00 154 8,8 - 1004,7 -
15/05/2022 15:45:00 155 8,5 - 1004,7 -
15/05/2022 15:30:00 148 4,2 - 1004,5 -
15/05/2022 15:15:00 144 4,9 - 1004,7 -
15/05/2022 15:00:00 152 24,3 - 1004,4 -
15/05/2022 14:45:00 157 8,1 - 1004,7 -
15/05/2022 14:30:00 148 2,5 - 1004,8 -
15/05/2022 14:15:00 158 4,2 - 1004,8 -
15/05/2022 14:00:00 128 4,9 - 1005,0 -
15/05/2022 13:45:00 129 2,1 - 1005,2 -
15/05/2022 13:30:00 149 3,2 - 1005,3 -
15/05/2022 13:15:00 149 0,7 - 1005,8 -